TimeCST,TemperatureF,Dew PointF,Humidity,Sea Level PressureIn,VisibilityMPH,Wind Direction,Wind SpeedMPH,Gust SpeedMPH,PrecipitationIn,Events,Conditions,WindDirDegrees,DateUTC
12:34 AM,12.2,6.8,79,30.11,2.0,SSW,4.6,-,0.00,Snow,Light Snow,200,2013-02-02 06:34:00
12:41 AM,12.2,6.8,79,30.11,1.8,South,5.8,-,0.01,Snow,Light Snow,190,2013-02-02 06:41:00
12:53 AM,12.0,7.0,80,30.15,1.8,South,4.6,-,0.01,Snow,Light Snow,190,2013-02-02 06:53:00
1:53 AM,12.9,9.0,84,30.13,1.5,South,5.8,-,0.00,Snow,Light Snow,190,2013-02-02 07:53:00
3:04 AM,15.8,10.4,79,30.04,0.8,SSW,6.9,-,0.00,Snow,Light Snow,200,2013-02-02 09:04:00
3:27 AM,15.8,10.4,79,30.02,1.0,SSW,5.8,-,0.01,Snow,Light Snow,200,2013-02-02 09:27:00
3:43 AM,15.8,10.4,79,30.02,0.8,SSW,5.8,-,0.02,Snow,Light Snow,210,2013-02-02 09:43:00
3:53 AM,15.1,10.9,84,30.06,0.8,SSW,4.6,-,0.02,Snow,Light Snow,210,2013-02-02 09:53:00
4:03 AM,15.8,10.4,79,30.01,1.2,SW,3.5,-,0.00,Snow,Light Snow,230,2013-02-02 10:03:00
4:17 AM,15.8,12.2,86,30.01,3.0,SW,3.5,-,0.01,Snow,Light Snow,220,2013-02-02 10:17:00
4:53 AM,16.0,12.0,84,30.05,4.0,Calm,Calm,-,0.01,Snow,Light Snow,0,2013-02-02 10:53:00
5:08 AM,17.6,12.2,79,30.00,2.0,SW,3.5,-,0.00,Snow,Light Snow,230,2013-02-02 11:08:00
5:18 AM,17.6,12.2,79,30.00,1.5,Calm,Calm,-,0.00,Snow,Light Snow,0,2013-02-02 11:18:00
5:34 AM,17.6,12.2,79,30.00,1.8,SW,4.6,-,0.00,Snow,Light Snow,220,2013-02-02 11:34:00
5:37 AM,17.6,12.2,79,30.00,2.0,SW,3.5,-,0.00,Snow,Light Snow,220,2013-02-02 11:37:00
5:42 AM,17.6,12.2,79,29.99,3.0,SW,3.5,-,0.00,Snow,Light Snow,220,2013-02-02 11:42:00
5:53 AM,17.1,14.0,88,30.04,4.0,Calm,Calm,-,0.00,Snow,Light Snow,0,2013-02-02 11:53:00
6:03 AM,17.6,14.0,86,30.00,1.8,Calm,Calm,-,0.00,Snow,Light Snow,0,2013-02-02 12:03:00
6:12 AM,17.6,14.0,86,30.00,2.0,NW,3.5,-,0.00,Snow,Light Snow,320,2013-02-02 12:12:00
6:23 AM,17.6,14.0,86,30.00,1.8,Calm,Calm,-,0.00,Snow,Light Snow,0,2013-02-02 12:23:00
6:33 AM,17.6,14.0,86,30.00,2.0,Calm,Calm,-,0.00,Snow,Light Snow,0,2013-02-02 12:33:00
6:53 AM,17.1,12.9,84,30.04,2.0,Calm,Calm,-,0.00,Snow,Light Snow,0,2013-02-02 12:53:00
7:09 AM,17.6,12.2,79,30.00,2.5,NNW,4.6,-,0.00,Snow,Light Snow,340,2013-02-02 13:09:00
7:18 AM,15.8,12.2,86,30.00,1.8,North,6.9,-,0.00,Snow,Light Snow,350,2013-02-02 13:18:00
7:29 AM,15.8,10.4,79,30.01,1.8,North,9.2,-,0.00,Snow,Light Snow,350,2013-02-02 13:29:00
7:53 AM,12.9,9.0,84,30.07,1.5,North,10.4,-,0.00,Snow,Light Snow,360,2013-02-02 13:53:00
8:00 AM,12.2,8.6,85,30.02,0.8,North,9.2,-,0.00,Snow,Light Snow,350,2013-02-02 14:00:00
8:30 AM,10.4,6.8,85,30.03,1.0,North,11.5,-,0.00,Snow,Light Snow,350,2013-02-02 14:30:00
8:53 AM,10.9,6.1,81,30.09,1.8,North,12.7,-,0.00,Snow,Light Snow,350,2013-02-02 14:53:00
9:02 AM,10.4,6.8,85,30.04,2.5,North,10.4,-,0.00,Snow,Light Snow,350,2013-02-02 15:02:00
9:48 AM,10.4,5.0,79,30.04,2.0,NNW,11.5,-,0.00,Snow,Light Snow,340,2013-02-02 15:48:00
9:53 AM,10.9,5.0,77,30.09,2.0,North,10.4,-,0.00,Snow,Light Snow,350,2013-02-02 15:53:00
10:00 AM,10.4,5.0,79,30.04,1.2,NNW,8.1,-,0.00,Snow,Light Snow,340,2013-02-02 16:00:00
10:18 AM,10.4,5.0,79,30.05,1.5,North,11.5,-,0.00,Snow,Light Snow,360,2013-02-02 16:18:00
10:43 AM,12.2,5.0,73,30.05,4.0,North,9.2,-,0.00,,Haze,350,2013-02-02 16:43:00
10:53 AM,12.0,3.9,70,30.09,4.0,North,8.1,-,0.00,,Haze,350,2013-02-02 16:53:00
11:53 AM,12.0,3.0,67,30.09,10.0,NNW,11.5,-,N/A,,Overcast,340,2013-02-02 17:53:00
12:53 PM,12.9,1.9,62,30.09,10.0,North,9.2,-,N/A,,Overcast,350,2013-02-02 18:53:00
1:53 PM,12.9,1.9,62,30.09,10.0,NNW,8.1,-,N/A,,Scattered Clouds,340,2013-02-02 19:53:00
2:53 PM,14.0,3.0,62,30.10,10.0,North,6.9,-,N/A,,Clear,350,2013-02-02 20:53:00
3:53 PM,12.0,1.0,61,30.11,10.0,NW,6.9,-,N/A,,Clear,320,2013-02-02 21:53:00
4:53 PM,10.0,1.0,67,30.11,10.0,West,6.9,-,N/A,,Clear,280,2013-02-02 22:53:00
5:53 PM,10.0,-0.0,64,30.11,10.0,WNW,8.1,-,N/A,,Scattered Clouds,300,2013-02-02 23:53:00
6:53 PM,9.0,-0.9,64,30.13,10.0,WNW,11.5,-,N/A,,Mostly Cloudy,300,2013-02-03 00:53:00
7:53 PM,8.1,-0.9,67,30.12,10.0,NW,9.2,-,N/A,,Overcast,310,2013-02-03 01:53:00
8:53 PM,7.0,-2.0,67,30.10,10.0,WNW,4.6,-,N/A,,Mostly Cloudy,290,2013-02-03 02:53:00
9:53 PM,1.0,-6.0,72,30.09,9.0,West,3.5,-,N/A,,Scattered Clouds,280,2013-02-03 03:53:00
10:53 PM,3.9,-2.9,73,30.07,10.0,Calm,Calm,-,N/A,,Overcast,0,2013-02-03 04:53:00
11:53 PM,7.0,-2.9,64,30.06,10.0,NW,3.5,-,N/A,,Overcast,320,2013-02-03 05:53:00